カタログに戻る

FENGYUN 1C DEB

運用中SSO
NORAD 38159·DEBRIS·🇨🇳 China

打ち上げ May 10, 1999 から Taiyuan Satellite Launch Center

Loading…

次のパス (今後24時間)

TLE

古いSource: Space-Track

元期: Aug 31, 2026, 12:10 UTC

1 38159U 99025ERG 26243.50695702  .00000549  00000-0  37318-3 0  9995
2 38159  99.2924 146.2234 0056481 340.8724  19.0320 14.03807553867841

AllMySatでFENGYUN 1C DEBをリアルタイム追跡

Download on the App Store